[[{"header":{"parameterUnit":"m.s-1","parameterCategory":1,"la1":30.2991,"la2":30.254,"lo1":-89.0895,"lo2":-89.0444,"dy":0.0017,"dx":0.0017,"nx":28,"ny":28,"refTime":"2024-03-21T21:00:00:Z","depth":0,"parameterNumber":2,"parameterNumberName":"U-component_of_WINDS"},"data":[0,0,0,0,0,0,0,0,0,0,0,0,0,0,0,0,0,0,0,0,0,0,0,0,0,0,0,0,0,0,0,0,0,0,0,0,0,0,0,0,0,0,0,0,0,0,0,0,0,0,0,0,0,0,0,0,0,0,1.0108,1.0109,0,1.0186,1.0187,1.0188,1.0205,1.0204,1.0203,1.0203,1.0286,1.0288,1.0291,0,0,0,0,0,0,0,0,0,0,0,0,0,0.9979,0.9981,1.0108,1.0109,1.011,1.0186,1.0187,1.0188,1.0205,1.0204,1.0203,1.0203,1.0285,1.0288,1.0291,0,0,0,0,0,0,0,0,0,0,0,0,0,1.0044,0.9982,1.0108,1.0127,1.013,1.0186,1.0187,1.0189,1.0205,1.0204,1.0203,1.0202,1.0284,1.0288,1.0292,1.0335,0,0,1.0305,1.0306,0,0,0,0,0,0,0,0,1.004,1.0048,1.0124,1.0126,1.0129,1.0185,1.0172,1.0238,1.0205,1.0176,1.0203,1.0202,1.0253,1.026,1.0276,1.0339,1.0342,1.0305,1.0307,1.0309,1.031,0,0,0,0,0,0,0,1.0035,1.0045,1.0139,1.0125,1.0128,1.0134,1.0142,1.0184,1.0219,1.0179,1.018,1.0189,1.0254,1.0272,1.0278,1.0344,1.0305,1.0308,1.0311,1.0313,1.045,1.0451,0,0,0,0,0,0,1.0027,1.0041,1.0137,1.0141,1.0081,1.0137,1.0146,1.0168,1.0218,1.0225,1.019,1.019,1.0266,1.0274,1.0281,1.0338,1.0309,1.0313,1.0315,1.0449,1.045,1.0452,0,0,0,0,0,0,1.0024,1.0035,1.0133,1.0092,1.0105,1.014,1.0164,1.017,1.0188,1.0227,1.0233,1.0201,1.0265,1.0276,1.0322,1.0341,1.0315,1.0319,1.0447,1.0449,1.0451,1.045,0,0,0,0,0,0,1.002,1.0034,1.0049,1.0092,1.0107,1.0171,1.0165,1.0172,1.0194,1.0195,1.0239,1.0246,1.0265,1.0316,1.0326,1.0346,1.0322,1.0446,1.0448,1.045,1.0449,1.0451,1.0454,0,0,0,0,0,1.0015,1.0046,1.005,1.0061,1.0126,1.0172,1.0181,1.0202,1.0196,1.0213,1.0238,1.0244,1.0337,1.0321,1.0332,1.0354,1.0445,1.0448,1.045,1.0447,1.0451,1.0454,0,0,0,0,0,0,1.0005,1.0051,1.0057,1.0101,1.0133,1.0175,1.0197,1.0205,1.0239,1.0238,1.0264,1.0274,1.032,1.0341,1.0322,1.0401,1.0391,1.0396,1.0385,1.0389,1.0391,1.0386,1.0325,0,0,0,0,0,1.0007,1.0039,1.0079,1.0115,1.013,1.0161,1.0181,1.0195,1.0229,1.0243,1.0272,1.0305,1.0343,1.0367,1.0403,1.0451,1.0463,1.0472,1.0475,1.0477,1.0482,1.0513,1.0519,1.046,1.046,1.046,0,0,1.0013,1.0043,1.0061,1.0113,1.0139,1.0174,1.0172,1.0208,1.0234,1.0248,1.0295,1.0318,1.0357,1.0406,1.0429,1.0426,1.0501,1.0481,1.0482,1.0486,1.0517,1.0522,1.0527,1.0462,1.0462,1.0461,0,0,1.0042,1.0067,1.0101,1.0127,1.0167,1.0187,1.0195,1.0237,1.0253,1.03,1.0312,1.0345,1.0407,1.0437,1.0459,1.0503,1.0511,1.0514,1.0529,1.0559,1.0564,1.0568,1.0587,1.0593,1.0518,1.0518,1.0518,0,1.0045,1.0096,1.0117,1.0154,1.0178,1.0192,1.0228,1.0253,1.0303,1.032,1.0315,1.0396,1.0423,1.0481,1.0492,1.0509,1.0522,1.051,1.0561,1.0566,1.057,1.0588,1.0595,1.0519,1.0518,1.0518,1.0518,0,1.01,1.0135,1.0158,1.0206,1.0232,1.0268,1.0297,1.0322,1.0334,1.0356,1.0405,1.0439,1.0484,1.0499,1.051,1.0559,1.0556,1.0556,1.0547,1.0576,1.0594,1.06,1.0519,1.0519,1.0519,1.0519,0,0,1.0123,1.0183,1.0192,1.0215,1.0261,1.029,1.0328,1.0372,1.0394,1.0428,1.0463,1.0517,1.0518,1.0544,1.056,1.0586,1.0623,1.0583,1.0585,1.0592,1.0683,1.0684,1.0692,1.0628,1.0629,1.063,1.0681,0,1.016,1.0227,1.0248,1.0305,1.0341,1.0356,1.039,1.0423,1.0446,1.048,1.0505,1.0545,1.0541,1.0558,1.0584,1.0612,1.0642,1.0609,1.0663,1.0665,1.0655,1.0701,1.0702,1.0747,1.0687,1.0688,1.0689,0,1.0211,1.0247,1.0307,1.0352,1.0368,1.0397,1.0441,1.0473,1.0512,1.0527,1.0558,1.0572,1.0615,1.0603,1.0666,1.0643,1.0667,1.0684,1.0687,1.0694,1.068,1.0712,1.0762,1.077,1.07,1.0699,1.0698,0,1.0225,1.0288,1.0334,1.0353,1.0405,1.0427,1.045,1.0488,1.0514,1.0553,1.0571,1.0614,1.0638,1.0672,1.0699,1.0687,1.0761,1.075,1.0776,1.0776,1.0792,1.0791,1.0849,1.0804,1.0803,1.0803,1.0803,0,1.0265,1.0302,1.0342,1.037,1.0413,1.0439,1.0481,1.0506,1.054,1.0576,1.0591,1.0624,1.0657,1.0695,1.0716,1.0767,1.0777,1.0792,1.0798,1.0792,1.079,1.0809,1.0808,1.0805,1.0805,1.0804,1.0804,0,1.0288,1.0316,1.0367,1.0413,1.0426,1.0456,1.0497,1.0526,1.055,1.0594,1.0606,1.0644,1.069,1.072,1.0779,1.0793,1.0849,1.0853,1.0836,1.0839,1.0865,1.0864,1.0939,1.0952,1.0895,1.0896,1.0896,0,1.0313,1.0342,1.0392,1.0416,1.0439,1.0478,1.0505,1.0533,1.0561,1.061,1.0634,1.0681,1.072,1.0794,1.0828,1.0874,1.088,1.0904,1.0887,1.0882,1.0884,1.0883,1.0888,1.0907,1.0907,1.0908,1.0908,0,1.0354,1.0367,1.0404,1.0448,1.048,1.0516,1.0552,1.0571,1.0605,1.0637,1.0684,1.0714,1.0775,1.0823,1.0873,1.0899,1.0911,1.0913,1.0922,1.0917,1.0908,1.0917,1.0846,1.0911,1.0911,1.0911,1.091,1.091,1.0381,1.0409,1.0449,1.0492,1.0522,1.0556,1.0587,1.0615,1.0654,1.0706,1.072,1.077,1.0813,1.0881,1.0908,1.095,1.0947,1.096,1.0963,1.0967,1.0969,1.0899,1.0959,1.0959,1.0959,1.0959,1.0959,0,1.0425,1.0452,1.0491,1.0542,1.0576,1.0583,1.0624,1.0653,1.0697,1.0735,1.0774,1.083,1.0878,1.0916,1.0966,1.0992,1.0999,1.1005,1.1004,1.1011,1.0967,1.0955,1.0999,1.0999,1.0999,1.0999,1.0999,1.0998,1.0452,1.0502,1.052,1.0585,1.0613,1.0662,1.0685,1.0718,1.0749,1.0811,1.0851,1.0875,1.0915,1.0968,1.1013,1.1024,1.1043,1.1048,1.106,1.1018,1.1013,1.1009,1.0999,1.1051,1.1051,1.1101,1.1101,1.1102]},{"header":{"parameterUnit":"m.s-1","parameterCategory":1,"la1":30.2991,"la2":30.254,"lo1":-89.0895,"lo2":-89.0444,"dy":0.0017,"dx":0.0017,"nx":28,"ny":28,"refTime":"2024-03-21T21:00:00:Z","depth":0,"parameterNumber":3,"parameterNumberName":"V-component_of_WINDS"},"data":[0,0,0,0,0,0,0,0,0,0,0,0,0,0,0,0,0,0,0,0,0,0,0,0,0,0,0,0,0,0,0,0,0,0,0,0,0,0,0,0,0,0,0,0,0,0,0,0,0,0,0,0,0,0,0,0,0,0,-2.2222,-2.2221,0,-2.2174,-2.2173,-2.2172,-2.2156,-2.2156,-2.2156,-2.2157,-2.2101,-2.21,-2.2098,0,0,0,0,0,0,0,0,0,0,0,0,0,-2.2293,-2.2291,-2.2222,-2.2221,-2.222,-2.2174,-2.2173,-2.2172,-2.2156,-2.2156,-2.2156,-2.2157,-2.2102,-2.21,-2.2098,0,0,0,0,0,0,0,0,0,0,0,0,0,-2.2255,-2.2291,-2.2222,-2.2207,-2.2205,-2.2174,-2.2173,-2.2172,-2.2156,-2.2156,-2.2156,-2.2157,-2.2102,-2.21,-2.2097,-2.2076,0,0,-2.209,-2.2089,0,0,0,0,0,0,0,0,-2.2257,-2.2252,-2.221,-2.2208,-2.2206,-2.2171,-2.2178,-2.214,-2.2156,-2.2174,-2.2157,-2.2157,-2.2124,-2.212,-2.211,-2.2073,-2.2071,-2.209,-2.2088,-2.2087,-2.2086,0,0,0,0,0,0,0,-2.226,-2.2254,-2.2202,-2.2209,-2.2207,-2.22,-2.2195,-2.217,-2.2148,-2.2173,-2.2171,-2.2166,-2.2123,-2.2112,-2.2108,-2.207,-2.209,-2.2087,-2.2086,-2.2085,-2.201,-2.201,0,0,0,0,0,0,-2.2266,-2.2256,-2.2204,-2.2201,-2.2233,-2.2199,-2.2193,-2.2182,-2.2148,-2.2143,-2.2166,-2.2166,-2.2116,-2.2111,-2.2106,-2.2077,-2.2087,-2.2085,-2.2083,-2.2011,-2.201,-2.201,0,0,0,0,0,0,-2.2267,-2.2261,-2.2206,-2.2228,-2.2221,-2.2197,-2.2185,-2.2181,-2.217,-2.2143,-2.2138,-2.216,-2.2116,-2.211,-2.2083,-2.2075,-2.2084,-2.2081,-2.2012,-2.2011,-2.201,-2.202,0,0,0,0,0,0,-2.2269,-2.2262,-2.2255,-2.2228,-2.222,-2.2186,-2.2184,-2.218,-2.2167,-2.2166,-2.2136,-2.2131,-2.2116,-2.2087,-2.2081,-2.2072,-2.2079,-2.2012,-2.2011,-2.201,-2.202,-2.2019,-2.2019,0,0,0,0,0,-2.2272,-2.2259,-2.2255,-2.2249,-2.2211,-2.2186,-2.218,-2.2165,-2.2166,-2.2158,-2.214,-2.2132,-2.2077,-2.2085,-2.2077,-2.2067,-2.2013,-2.2011,-2.201,-2.202,-2.2019,-2.2019,0,0,0,0,0,0,-2.2283,-2.2255,-2.225,-2.2229,-2.221,-2.2183,-2.2172,-2.2165,-2.2144,-2.2144,-2.2124,-2.2117,-2.2092,-2.2077,-2.2086,-2.2043,-2.2044,-2.2042,-2.2054,-2.2053,-2.2053,-2.2056,-2.2077,0,0,0,0,0,-2.2284,-2.2267,-2.2243,-2.2226,-2.2217,-2.2196,-2.2184,-2.2174,-2.2153,-2.2145,-2.2125,-2.2103,-2.208,-2.2066,-2.2044,-2.2018,-2.2009,-2.2007,-2.2006,-2.2006,-2.2004,-2.1986,-2.1984,-2.2006,-2.2006,-2.2006,0,0,-2.2283,-2.2266,-2.2257,-2.2228,-2.2212,-2.2193,-2.219,-2.217,-2.2155,-2.2141,-2.2115,-2.21,-2.2073,-2.2047,-2.2034,-2.2034,-2.1996,-2.2005,-2.2005,-2.2002,-2.1985,-2.1983,-2.1981,-2.2006,-2.2006,-2.2006,0,0,-2.2274,-2.226,-2.2243,-2.2228,-2.2204,-2.2191,-2.2187,-2.2161,-2.215,-2.2125,-2.2113,-2.2093,-2.2056,-2.2037,-2.2023,-2.2004,-2.1995,-2.1997,-2.1994,-2.1977,-2.1976,-2.1974,-2.1965,-2.1963,-2.1995,-2.1995,-2.1995,0,-2.2276,-2.2249,-2.2235,-2.2217,-2.2203,-2.2191,-2.2172,-2.2157,-2.2127,-2.2117,-2.2117,-2.2069,-2.2051,-2.2018,-2.2014,-2.2003,-2.1996,-2.2001,-2.1978,-2.1976,-2.1974,-2.1965,-2.1962,-2.1996,-2.1996,-2.1996,-2.1996,0,-2.2252,-2.2234,-2.2223,-2.2196,-2.2181,-2.2163,-2.2144,-2.213,-2.212,-2.2106,-2.2078,-2.2055,-2.2028,-2.2019,-2.201,-2.1985,-2.1985,-2.1982,-2.1982,-2.1972,-2.1964,-2.1961,-2.1996,-2.1996,-2.1996,-2.1996,0,0,-2.2249,-2.2214,-2.221,-2.2197,-2.2169,-2.2154,-2.2133,-2.2108,-2.2096,-2.2075,-2.2056,-2.2024,-2.202,-2.2004,-2.1991,-2.1977,-2.1961,-2.1975,-2.1974,-2.1972,-2.193,-2.1931,-2.1928,-2.1955,-2.1955,-2.1954,-2.1931,0,-2.2234,-2.22,-2.2186,-2.2157,-2.2139,-2.2126,-2.2108,-2.2088,-2.2073,-2.2053,-2.2036,-2.2013,-2.2011,-2.2001,-2.1986,-2.1966,-2.1952,-2.1968,-2.1935,-2.1934,-2.1941,-2.1924,-2.1926,-2.1906,-2.1928,-2.1927,-2.1927,0,-2.2213,-2.2194,-2.2164,-2.2137,-2.2129,-2.2113,-2.2088,-2.207,-2.2046,-2.2036,-2.2017,-2.2005,-2.198,-2.1983,-2.1947,-2.1958,-2.1944,-2.1932,-2.193,-2.1926,-2.1929,-2.1917,-2.1899,-2.1896,-2.1922,-2.1923,-2.1923,0,-2.2212,-2.2178,-2.2155,-2.2144,-2.2113,-2.2102,-2.2088,-2.2065,-2.205,-2.2026,-2.2016,-2.199,-2.1975,-2.1954,-2.1934,-2.1938,-2.1899,-2.19,-2.1888,-2.1888,-2.1879,-2.188,-2.1857,-2.1872,-2.1872,-2.1872,-2.1872,0,-2.2197,-2.2178,-2.2154,-2.214,-2.2118,-2.2101,-2.2078,-2.2063,-2.2042,-2.2022,-2.2009,-2.1991,-2.1967,-2.1944,-2.1928,-2.19,-2.1893,-2.1882,-2.1878,-2.1883,-2.1884,-2.1872,-2.1873,-2.1872,-2.1872,-2.1872,-2.1872,0,-2.2192,-2.2175,-2.2149,-2.2121,-2.2114,-2.2099,-2.2074,-2.2058,-2.2043,-2.2018,-2.2011,-2.1986,-2.1959,-2.1937,-2.1901,-2.189,-2.1859,-2.1856,-2.1868,-2.1866,-2.1854,-2.1854,-2.1821,-2.1815,-2.1836,-2.1836,-2.1836,0,-2.2183,-2.2168,-2.214,-2.2127,-2.2113,-2.2092,-2.2077,-2.2059,-2.2043,-2.2013,-2.2,-2.1973,-2.1949,-2.1906,-2.1882,-2.1854,-2.1848,-2.1839,-2.1844,-2.1848,-2.1846,-2.1846,-2.1844,-2.1838,-2.1837,-2.1837,-2.1837,0,-2.2168,-2.216,-2.214,-2.2116,-2.2099,-2.2079,-2.2058,-2.2048,-2.2025,-2.2007,-2.198,-2.1962,-2.1926,-2.1897,-2.1866,-2.1849,-2.1838,-2.1836,-2.1831,-2.1835,-2.1842,-2.1836,-2.1865,-2.1836,-2.1837,-2.1837,-2.1837,-2.1837,-2.216,-2.2146,-2.2123,-2.21,-2.2083,-2.2064,-2.2047,-2.203,-2.2007,-2.1977,-2.1967,-2.1938,-2.1912,-2.1869,-2.1852,-2.1827,-2.1826,-2.182,-2.1818,-2.1816,-2.1815,-2.1848,-2.1821,-2.1821,-2.1821,-2.1821,-2.1821,0,-2.2143,-2.2128,-2.2107,-2.2079,-2.206,-2.2054,-2.2031,-2.2014,-2.199,-2.1967,-2.1945,-2.1912,-2.1884,-2.1858,-2.1828,-2.1813,-2.1807,-2.1805,-2.1805,-2.1801,-2.1819,-2.1825,-2.181,-2.181,-2.181,-2.181,-2.181,-2.181,-2.2132,-2.2108,-2.2097,-2.2062,-2.2046,-2.202,-2.2006,-2.1987,-2.1968,-2.1933,-2.191,-2.1894,-2.1869,-2.1837,-2.1809,-2.1802,-2.1791,-2.179,-2.1781,-2.1798,-2.18,-2.1801,-2.1807,-2.1788,-2.1788,-2.1765,-2.1765,-2.1764]}]]